QPF
0.00 0.00 0.00 0.00 0.00 0.00 0.00 0.00 0.00 0.00 0.00 0.00 0.00 0.00 0.00 0.00 0.00 0.00 0.00 0.00 0.00 0.00 0.00 0.00 0.00 0.00 0.00 0.00 0.00 0.00 0.00 0.00 0.00 0.00 0.00 0.00 0.00 0.00 0.00 0.00 0.00 0.00 0.00 0.00
0.00 0.00 0.00 0.00 0.00 0.00 0.00 0.00 0.00 0.00 0.00 0.00 0.00 0.00 0.00 0.00 0.00 0.00 0.00 0.00 0.00 0.00 0.00 0.00 0.00 0.00 0.00 0.00 0.00 0.00 0.00 0.00 0.00 0.00 0.00 0.00 0.00 0.00 0.00 0.00 0.00 0.00 0.00 0.00
0.00 0.01 0.00 0.00 0.00 0.00 0.00 0.00 0.00 0.00 0.00 0.00 0.00 0.00 0.00 0.00 0.00 0.00 0.00 0.00 0.00 0.00 0.00 0.00 0.00 0.00 0.00 0.00 0.00 0.00 0.00 0.00 0.00 0.00 0.00 0.00 0.00 0.00 0.00 0.00 0.00 0.00 0.00 0.00
0.00 0.00 0.00 0.00 0.00 0.00 0.00 0.00 0.00 0.00 0.00 0.00 0.00 0.00 0.00 0.00 0.00 0.00 0.00 0.00 0.00 0.00 0.00 0.00 0.00 0.00 0.00 0.00 0.00 0.00 0.00 0.00 0.00 0.00 0.00 0.00 0.00 0.00 0.00 0.00 0.00 0.00 0.00 0.00
0.00 0.01 0.01 0.02 0.01 0.01 0.01 0.01 0.00 0.00 0.00 0.00 0.00 0.00 0.00 0.00 0.00 0.00 0.00 0.00 0.00 0.00 0.00 0.00 0.00 0.00 0.00 0.00 0.00 0.00 0.00 0.00 0.00 0.00 0.00 0.00 0.00 0.00 0.00 0.00 0.00 0.00 0.00 0.00
0.00 0.01 0.03 0.03 0.03 0.02 0.02 0.03 0.04 0.01 0.00 0.00 0.01 0.02 0.01 0.00 0.01 0.01 0.00 0.00 0.00 0.00 0.00 0.00 0.00 0.00 0.00 0.00 0.00 0.00 0.00 0.00 0.00 0.00 0.00 0.00 0.00 0.00 0.00 0.00 0.00 0.00 0.00 0.00
0.01 0.01 0.01 0.03 0.03 0.03 0.05 0.08 0.05 0.03 0.01 0.01 0.00 0.01 0.00 0.00 0.00 0.00 0.00 0.00 0.00 0.00 0.00 0.00 0.00 0.00 0.00 0.00 0.00 0.00 0.00 0.00 0.00 0.00 0.00 0.00 0.00 0.00 0.00 0.00 0.00 0.00 0.00 0.00
0.01 0.03 0.05 0.05 0.04 0.04 0.06 0.06 0.05 0.02 0.01 0.00 0.00 0.00 0.00 0.00 0.00 0.00 0.00 0.00 0.00 0.00 0.00 0.00 0.00 0.00 0.00 0.00 0.00 0.00 0.00 0.00 0.00 0.00 0.00 0.00 0.00 0.00 0.00 0.00 0.00 0.00 0.01 0.01
0.01 0.04 0.03 0.03 0.04 0.03 0.01 0.01 0.00 0.00 0.00 0.00 0.00 0.00 0.00 0.00 0.00 0.00 0.00 0.00 0.00 0.00 0.00 0.00 0.00 0.00 0.00 0.00 0.00 0.00 0.00 0.00 0.00 0.00 0.00 0.00 0.00 0.00 0.00 0.00 0.00 0.00 0.01 0.01
0.02 0.03 0.03 0.02 0.01 0.00 0.00 0.00 0.00 0.00 0.00 0.00 0.00 0.00 0.00 0.00 0.00 0.00 0.00 0.00 0.00 0.00 0.00 0.00 0.00 0.00 0.00 0.00 0.00 0.00 0.00 0.01 0.01 0.00 0.01 0.01 0.00 0.00 0.00 0.00 0.00 0.01 0.01 0.01
0.03 0.05 0.07 0.04 0.02 0.00 0.00 0.00 0.00 0.00 0.00 0.00 0.00 0.00 0.00 0.00 0.00 0.00 0.00 0.00 0.00 0.00 0.00 0.00 0.00 0.00 0.00 0.00 0.01 0.02 0.02 0.02 0.02 0.02 0.02 0.02 0.01 0.01 0.00 0.00 0.00 0.00 0.00 0.00
0.01 0.02 0.02 0.03 0.01 0.00 0.00 0.00 0.00 0.00 0.00 0.00 0.00 0.00 0.00 0.00 0.00 0.00 0.00 0.00 0.00 0.00 0.00 0.00 0.00 0.00 0.00 0.00 0.01 0.03 0.03 0.03 0.02 0.02 0.01 0.01 0.01 0.00 0.00 0.00 0.00 0.00 0.00 0.00
0.01 0.01 0.01 0.00 0.00 0.00 0.00 0.00 0.00 0.00 0.00 0.00 0.00 0.00 0.00 0.00 0.00 0.00 0.00 0.00 0.00 0.00 0.00 0.00 0.00 0.00 0.00 0.00 0.02 0.03 0.04 0.04 0.03 0.02 0.01 0.00 0.00 0.01 0.01 0.01 0.01 0.01 0.01 0.01
0.02 0.01 0.01 0.00 0.00 0.00 0.00 0.00 0.00 0.00 0.00 0.00 0.00 0.00 0.00 0.00 0.00 0.00 0.00 0.00 0.00 0.00 0.00 0.00 0.00 0.00 0.01 0.01 0.03 0.04 0.04 0.04 0.03 0.03 0.02 0.02 0.01 0.01 0.01 0.01 0.03 0.03 0.03 0.02
0.02 0.01 0.01 0.01 0.00 0.00 0.00 0.00 0.00 0.00 0.00 0.00 0.00 0.00 0.00 0.00 0.00 0.00 0.00 0.00 0.00 0.00 0.00 0.00 0.00 0.01 0.02 0.02 0.02 0.03 0.03 0.03 0.03 0.03 0.02 0.02 0.02 0.02 0.02 0.02 0.03 0.04 0.06 0.06
0.01 0.01 0.00 0.00 0.00 0.00 0.00 0.00 0.00 0.00 0.00 0.00 0.00 0.00 0.00 0.00 0.00 0.00 0.00 0.00 0.00 0.00 0.00 0.00 0.00 0.01 0.01 0.01 0.01 0.02 0.02 0.02 0.02 0.02 0.02 0.02 0.02 0.03 0.03 0.04 0.04 0.05 0.06 0.06
0.00 0.00 0.00 0.00 0.00 0.00 0.00 0.00 0.00 0.00 0.00 0.00 0.00 0.00 0.00 0.00 0.00 0.00 0.00 0.00 0.00 0.00 0.00 0.00 0.00 0.00 0.00 0.01 0.01 0.01 0.01 0.02 0.01 0.01 0.02 0.02 0.02 0.02 0.02 0.03 0.04 0.05 0.05 0.05
0.00 0.00 0.00 0.00 0.00 0.00 0.00 0.00 0.00 0.00 0.00 0.00 0.00 0.00 0.00 0.00 0.00 0.00 0.00 0.00 0.00 0.00 0.00 0.00 0.00 0.00 0.00 0.01 0.01 0.01 0.01 0.02 0.02 0.01 0.02 0.03 0.02 0.03 0.03 0.04 0.06 0.06 0.07 0.07
0.00 0.00 0.00 0.00 0.00 0.00 0.00 0.00 0.00 0.00 0.00 0.00 0.00 0.00 0.00 0.00 0.00 0.00 0.00 0.00 0.00 0.00 0.00 0.01 0.00 0.00 0.00 0.01 0.01 0.01 0.02 0.02 0.02 0.03 0.04 0.04 0.04 0.05 0.06 0.07 0.07 0.07 0.07 0.08
0.00 0.00 0.00 0.00 0.00 0.00 0.00 0.00 0.00 0.00 0.00 0.00 0.00 0.00 0.00 0.00 0.00 0.00 0.00 0.00 0.00 0.01 0.01 0.00 0.00 0.00 0.00 0.01 0.01 0.01 0.01 0.02 0.03 0.04 0.06 0.07 0.08 0.08 0.09 0.09 0.08 0.07 0.07 0.08
0.00 0.00 0.00 0.00 0.00 0.00 0.00 0.00 0.00 0.00 0.00 0.00 0.00 0.00 0.00 0.00 0.00 0.00 0.00 0.01 0.01 0.01 0.00 0.00 0.00 0.00 0.00 0.01 0.00 0.01 0.02 0.03 0.05 0.07 0.09 0.10 0.10 0.10 0.10 0.09 0.08 0.08 0.08 0.08
0.00 0.00 0.00 0.00 0.00 0.00 0.00 0.00 0.00 0.00 0.00 0.00 0.00 0.00 0.00 0.00 0.00 0.00 0.01 0.01 0.01 0.00 0.00 0.00 0.00 0.00 0.00 0.00 0.01 0.02 0.04 0.06 0.08 0.09 0.11 0.11 0.11 0.10 0.10 0.09 0.08 0.08 0.08 0.09
0.00 0.00 0.00 0.00 0.00 0.00 0.00 0.00 0.00 0.00 0.00 0.00 0.00 0.00 0.00 0.00 0.01 0.01 0.01 0.01 0.00 0.00 0.00 0.01 0.00 0.00 0.00 0.00 0.02 0.05 0.07 0.09 0.10 0.11 0.12 0.12 0.11 0.10 0.09 0.08 0.08 0.08 0.08 0.07
0.00 0.00 0.00 0.00 0.00 0.00 0.00 0.00 0.00 0.00 0.00 0.00 0.00 0.00 0.01 0.01 0.01 0.01 0.01 0.01 0.01 0.01 0.01 0.01 0.01 0.01 0.01 0.02 0.05 0.07 0.08 0.08 0.09 0.10 0.09 0.08 0.07 0.07 0.06 0.06 0.05 0.05 0.05 0.05
0.00 0.00 0.00 0.00 0.00 0.00 0.00 0.00 0.00 0.00 0.00 0.00 0.00 0.00 0.00 0.00 0.01 0.01 0.01 0.01 0.01 0.01 0.03 0.04 0.02 0.02 0.03 0.05 0.06 0.05 0.05 0.05 0.06 0.06 0.06 0.06 0.05 0.04 0.03 0.02 0.02 0.03 0.03 0.02
0.00 0.00 0.00 0.00 0.00 0.00 0.00 0.00 0.00 0.01 0.01 0.00 0.00 0.00 0.00 0.00 0.01 0.02 0.02 0.02 0.03 0.03 0.04 0.04 0.03 0.03 0.03 0.03 0.04 0.05 0.05 0.05 0.05 0.04 0.04 0.05 0.05 0.04 0.03 0.02 0.02 0.02 0.02 0.01
0.00 0.00 0.00 0.00 0.00 0.00 0.00 0.00 0.01 0.01 0.01 0.00 0.00 0.00 0.00 0.02 0.03 0.03 0.03 0.04 0.04 0.04 0.03 0.03 0.02 0.02 0.02 0.02 0.04 0.04 0.04 0.05 0.05 0.04 0.03 0.03 0.03 0.02 0.02 0.02 0.01 0.01 0.02 0.01
MSLP
1008.99 1009.10 1009.18 1009.22 1009.21 1009.15 1009.01 1008.80 1008.51 1008.17 1007.79 1007.41 1007.07 1006.79 1006.60 1006.53 1006.58 1006.76 1007.04 1007.41 1007.84 1008.31 1008.81 1009.31 1009.80 1010.28 1010.72 1011.13 1011.49 1011.81 1012.07 1012.28 1012.43 1012.54 1012.62 1012.68 1012.73 1012.79 1012.86 1012.95 1013.05 1013.16 1013.27 1013.37
1009.11 1009.21 1009.24 1009.20 1009.08 1008.89 1008.63 1008.31 1007.96 1007.58 1007.20 1006.86 1006.56 1006.34 1006.21 1006.17 1006.24 1006.40 1006.64 1006.95 1007.33 1007.75 1008.20 1008.68 1009.16 1009.64 1010.11 1010.55 1010.96 1011.31 1011.62 1011.86 1012.05 1012.19 1012.29 1012.36 1012.43 1012.49 1012.55 1012.63 1012.72 1012.81 1012.91 1013.01
1009.23 1009.34 1009.36 1009.28 1009.10 1008.82 1008.47 1008.07 1007.64 1007.22 1006.81 1006.46 1006.17 1005.96 1005.83 1005.78 1005.82 1005.93 1006.10 1006.34 1006.64 1006.99 1007.38 1007.82 1008.29 1008.79 1009.29 1009.78 1010.25 1010.67 1011.05 1011.37 1011.62 1011.82 1011.97 1012.08 1012.16 1012.22 1012.28 1012.33 1012.39 1012.45 1012.52 1012.59
1009.34 1009.49 1009.52 1009.44 1009.24 1008.92 1008.51 1008.05 1007.56 1007.08 1006.64 1006.25 1005.93 1005.69 1005.53 1005.45 1005.42 1005.45 1005.54 1005.69 1005.89 1006.15 1006.47 1006.85 1007.29 1007.78 1008.31 1008.85 1009.39 1009.90 1010.37 1010.78 1011.13 1011.40 1011.61 1011.76 1011.87 1011.93 1011.97 1012.00 1012.02 1012.03 1012.05 1012.08
1009.42 1009.60 1009.68 1009.62 1009.43 1009.11 1008.68 1008.19 1007.66 1007.14 1006.65 1006.23 1005.88 1005.60 1005.39 1005.25 1005.15 1005.10 1005.10 1005.13 1005.23 1005.38 1005.61 1005.91 1006.30 1006.76 1007.29 1007.86 1008.46 1009.04 1009.60 1010.10 1010.54 1010.90 1011.17 1011.37 1011.50 1011.57 1011.60 1011.59 1011.57 1011.53 1011.50 1011.47
1009.43 1009.66 1009.78 1009.76 1009.60 1009.30 1008.89 1008.40 1007.86 1007.33 1006.83 1006.38 1006.00 1005.70 1005.45 1005.26 1005.10 1004.98 1004.88 1004.82 1004.80 1004.84 1004.96 1005.17 1005.48 1005.88 1006.38 1006.94 1007.55 1008.18 1008.79 1009.36 1009.87 1010.30 1010.63 1010.87 1011.03 1011.11 1011.12 1011.09 1011.03 1010.95 1010.87 1010.81
1009.35 1009.60 1009.76 1009.80 1009.69 1009.44 1009.07 1008.61 1008.10 1007.59 1007.10 1006.66 1006.29 1005.98 1005.73 1005.51 1005.32 1005.14 1004.98 1004.83 1004.72 1004.65 1004.65 1004.75 1004.95 1005.27 1005.69 1006.21 1006.79 1007.41 1008.03 1008.62 1009.16 1009.63 1010.00 1010.26 1010.44 1010.52 1010.53 1010.48 1010.40 1010.30 1010.20 1010.12
1009.15 1009.42 1009.62 1009.71 1009.66 1009.48 1009.17 1008.78 1008.33 1007.87 1007.43 1007.03 1006.70 1006.42 1006.19 1005.99 1005.80 1005.61 1005.41 1005.20 1005.01 1004.85 1004.75 1004.73 1004.82 1005.02 1005.33 1005.75 1006.26 1006.81 1007.39 1007.95 1008.47 1008.92 1009.29 1009.56 1009.73 1009.82 1009.83 1009.78 1009.70 1009.60 1009.51 1009.44
1008.84 1009.13 1009.37 1009.51 1009.52 1009.41 1009.19 1008.87 1008.51 1008.13 1007.77 1007.45 1007.19 1006.98 1006.80 1006.65 1006.49 1006.31 1006.11 1005.89 1005.65 1005.42 1005.24 1005.12 1005.08 1005.16 1005.34 1005.63 1006.01 1006.45 1006.92 1007.40 1007.84 1008.23 1008.55 1008.78 1008.94 1009.01 1009.02 1008.99 1008.93 1008.86 1008.81 1008.77
1008.47 1008.78 1009.05 1009.23 1009.31 1009.28 1009.14 1008.92 1008.66 1008.38 1008.11 1007.89 1007.72 1007.59 1007.49 1007.40 1007.30 1007.17 1007.00 1006.78 1006.53 1006.27 1006.03 1005.83 1005.69 1005.64 1005.69 1005.83 1006.05 1006.33 1006.66 1006.99 1007.30 1007.58 1007.80 1007.97 1008.07 1008.12 1008.13 1008.12 1008.09 1008.07 1008.07 1008.10
1008.11 1008.44 1008.73 1008.96 1009.10 1009.14 1009.09 1008.97 1008.80 1008.62 1008.46 1008.33 1008.25 1008.20 1008.18 1008.17 1008.14 1008.06 1007.94 1007.76 1007.53 1007.27 1007.00 1006.74 1006.53 1006.37 1006.28 1006.27 1006.32 1006.43 1006.56 1006.71 1006.85 1006.98 1007.07 1007.12 1007.15 1007.16 1007.16 1007.16 1007.17 1007.21 1007.28 1007.39
1007.83 1008.18 1008.51 1008.78 1008.98 1009.08 1009.11 1009.07 1008.99 1008.90 1008.83 1008.78 1008.77 1008.79 1008.84 1008.88 1008.90 1008.88 1008.81 1008.67 1008.48 1008.24 1007.97 1007.69 1007.43 1007.19 1007.00 1006.85 1006.73 1006.65 1006.59 1006.54 1006.48 1006.42 1006.35 1006.27 1006.20 1006.14 1006.11 1006.11 1006.16 1006.26 1006.40 1006.59
1007.72 1008.10 1008.45 1008.76 1009.00 1009.16 1009.26 1009.29 1009.28 1009.26 1009.24 1009.25 1009.28 1009.34 1009.41 1009.49 1009.54 1009.55 1009.52 1009.42 1009.26 1009.05 1008.81 1008.53 1008.25 1007.96 1007.68 1007.42 1007.16 1006.90 1006.65 1006.40 1006.14 1005.88 1005.64 1005.42 1005.23 1005.09 1005.01 1005.01 1005.08 1005.22 1005.42 1005.68
1007.82 1008.22 1008.60 1008.93 1009.21 1009.41 1009.55 1009.63 1009.68 1009.70 1009.71 1009.74 1009.78 1009.84 1009.90 1009.97 1010.01 1010.03 1010.00 1009.92 1009.79 1009.62 1009.40 1009.14 1008.86 1008.55 1008.22 1007.87 1007.49 1007.10 1006.68 1006.25 1005.80 1005.37 1004.95 1004.58 1004.27 1004.05 1003.91 1003.88 1003.95 1004.12 1004.36 1004.67
1008.13 1008.54 1008.94 1009.29 1009.59 1009.82 1009.99 1010.10 1010.17 1010.20 1010.22 1010.24 1010.25 1010.27 1010.29 1010.31 1010.31 1010.29 1010.24 1010.16 1010.04 1009.89 1009.69 1009.46 1009.19 1008.88 1008.53 1008.13 1007.68 1007.18 1006.63 1006.06 1005.46 1004.87 1004.31 1003.80 1003.38 1003.07 1002.87 1002.80 1002.85 1003.02 1003.28 1003.61
1008.63 1009.04 1009.43 1009.79 1010.09 1010.33 1010.51 1010.63 1010.71 1010.74 1010.74 1010.72 1010.68 1010.63 1010.58 1010.52 1010.44 1010.36 1010.26 1010.15 1010.02 1009.87 1009.70 1009.49 1009.25 1008.96 1008.60 1008.19 1007.70 1007.13 1006.51 1005.83 1005.13 1004.42 1003.75 1003.14 1002.62 1002.22 1001.96 1001.84 1001.86 1002.01 1002.26 1002.59
1009.25 1009.64 1010.01 1010.34 1010.63 1010.86 1011.04 1011.16 1011.22 1011.23 1011.20 1011.13 1011.02 1010.90 1010.75 1010.59 1010.43 1010.27 1010.11 1009.95 1009.80 1009.64 1009.48 1009.30 1009.08 1008.82 1008.49 1008.08 1007.58 1007.00 1006.34 1005.61 1004.85 1004.08 1003.33 1002.65 1002.06 1001.60 1001.28 1001.10 1001.07 1001.18 1001.40 1001.70
1009.90 1010.25 1010.58 1010.87 1011.13 1011.33 1011.49 1011.58 1011.62 1011.61 1011.53 1011.41 1011.23 1011.02 1010.79 1010.54 1010.29 1010.05 1009.83 1009.62 1009.44 1009.28 1009.13 1008.97 1008.78 1008.56 1008.27 1007.89 1007.42 1006.85 1006.20 1005.46 1004.69 1003.89 1003.11 1002.39 1001.76 1001.25 1000.88 1000.65 1000.57 1000.62 1000.78 1001.03
1010.50 1010.79 1011.05 1011.29 1011.49 1011.65 1011.76 1011.83 1011.84 1011.78 1011.67 1011.49 1011.26 1010.99 1010.69 1010.37 1010.05 1009.75 1009.47 1009.24 1009.04 1008.88 1008.74 1008.62 1008.47 1008.29 1008.05 1007.72 1007.30 1006.77 1006.16 1005.45 1004.69 1003.91 1003.14 1002.41 1001.76 1001.22 1000.81 1000.53 1000.39 1000.37 1000.46 1000.64
1010.97 1011.18 1011.36 1011.52 1011.66 1011.76 1011.83 1011.85 1011.82 1011.73 1011.57 1011.36 1011.09 1010.78 1010.43 1010.07 1009.72 1009.39 1009.10 1008.86 1008.68 1008.54 1008.43 1008.35 1008.25 1008.13 1007.94 1007.67 1007.31 1006.84 1006.27 1005.62 1004.90 1004.15 1003.41 1002.69 1002.05 1001.49 1001.05 1000.72 1000.52 1000.43 1000.44 1000.53
1011.27 1011.39 1011.48 1011.56 1011.62 1011.66 1011.67 1011.64 1011.57 1011.44 1011.26 1011.02 1010.73 1010.40 1010.05 1009.69 1009.35 1009.03 1008.77 1008.56 1008.41 1008.32 1008.27 1008.24 1008.20 1008.13 1008.01 1007.80 1007.49 1007.08 1006.57 1005.97 1005.31 1004.60 1003.89 1003.20 1002.56 1002.00 1001.53 1001.17 1000.91 1000.75 1000.67 1000.68
1011.38 1011.41 1011.42 1011.42 1011.40 1011.37 1011.32 1011.24 1011.13 1010.97 1010.77 1010.52 1010.23 1009.91 1009.58 1009.26 1008.96 1008.70 1008.49 1008.35 1008.27 1008.25 1008.27 1008.31 1008.34 1008.33 1008.27 1008.11 1007.86 1007.50 1007.04 1006.48 1005.86 1005.20 1004.52 1003.86 1003.23 1002.67 1002.18 1001.78 1001.47 1001.24 1001.09 1001.00
1011.32 1011.27 1011.21 1011.13 1011.05 1010.96 1010.85 1010.73 1010.58 1010.39 1010.18 1009.93 1009.66 1009.37 1009.09 1008.83 1008.60 1008.43 1008.31 1008.27 1008.28 1008.35 1008.45 1008.57 1008.66 1008.72 1008.70 1008.59 1008.37 1008.05 1007.62 1007.10 1006.51 1005.87 1005.22 1004.57 1003.96 1003.40 1002.90 1002.47 1002.11 1001.83 1001.60 1001.43
1011.13 1011.02 1010.90 1010.78 1010.64 1010.50 1010.35 1010.19 1010.01 1009.81 1009.59 1009.36 1009.11 1008.88 1008.66 1008.47 1008.34 1008.26 1008.25 1008.31 1008.43 1008.60 1008.79 1008.97 1009.13 1009.23 1009.25 1009.16 1008.97 1008.66 1008.25 1007.74 1007.17 1006.55 1005.91 1005.27 1004.67 1004.11 1003.60 1003.15 1002.76 1002.42 1002.14 1001.89
1010.87 1010.73 1010.58 1010.42 1010.26 1010.09 1009.92 1009.73 1009.54 1009.33 1009.12 1008.90 1008.69 1008.51 1008.35 1008.25 1008.21 1008.23 1008.33 1008.49 1008.71 1008.97 1009.23 1009.48 1009.68 1009.81 1009.85 1009.78 1009.59 1009.28 1008.86 1008.35 1007.78 1007.16 1006.53 1005.90 1005.30 1004.73 1004.22 1003.76 1003.35 1002.98 1002.65 1002.35
1010.61 1010.46 1010.30 1010.13 1009.97 1009.79 1009.61 1009.43 1009.23 1009.03 1008.83 1008.64 1008.48 1008.34 1008.25 1008.22 1008.26 1008.38 1008.56 1008.81 1009.10 1009.42 1009.74 1010.03 1010.26 1010.41 1010.45 1010.37 1010.17 1009.85 1009.42 1008.90 1008.31 1007.69 1007.05 1006.42 1005.82 1005.26 1004.75 1004.28 1003.86 1003.47 1003.11 1002.77
1010.39 1010.25 1010.10 1009.96 1009.81 1009.65 1009.49 1009.32 1009.15 1008.97 1008.80 1008.64 1008.51 1008.42 1008.39 1008.42 1008.52 1008.69 1008.94 1009.24 1009.58 1009.94 1010.28 1010.59 1010.83 1010.97 1011.00 1010.90 1010.68 1010.34 1009.90 1009.36 1008.77 1008.14 1007.50 1006.87 1006.27 1005.71 1005.20 1004.73 1004.30 1003.91 1003.53 1003.17
Thickness
5775 5778 5776 5776 5783 5786 5782 5779 5769 5772 5775 5782 5789 5791 5791 5791 5789 5784 5780 5776 5772 5767 5761 5757 5752 5749 5744 5740 5737 5732 5726 5720 5715 5711 5706 5702 5697 5692 5687 5682 5677 5672 5666 5661
5767 5780 5783 5782 5790 5790 5787 5786 5782 5780 5779 5794 5796 5795 5790 5788 5785 5780 5777 5775 5772 5767 5762 5755 5751 5747 5743 5738 5735 5730 5723 5718 5714 5709 5704 5698 5693 5688 5683 5678 5673 5667 5661 5655
5754 5770 5770 5763 5780 5783 5781 5786 5782 5771 5778 5791 5788 5786 5785 5785 5783 5780 5779 5777 5773 5769 5763 5758 5753 5748 5743 5738 5734 5728 5721 5716 5711 5706 5700 5695 5690 5685 5679 5673 5667 5661 5656 5651
5753 5753 5734 5764 5792 5789 5780 5783 5789 5787 5788 5789 5787 5789 5790 5788 5784 5780 5779 5777 5775 5772 5767 5762 5757 5752 5745 5739 5732 5726 5719 5713 5709 5703 5697 5692 5685 5679 5673 5667 5660 5655 5650 5645
5749 5742 5747 5765 5774 5771 5765 5764 5780 5781 5782 5785 5788 5784 5781 5785 5783 5780 5780 5778 5776 5774 5770 5765 5759 5754 5745 5738 5731 5724 5717 5711 5707 5701 5694 5687 5680 5673 5667 5660 5654 5648 5644 5639
5748 5736 5730 5748 5761 5770 5759 5741 5761 5766 5768 5771 5773 5757 5759 5775 5777 5774 5777 5777 5774 5772 5769 5762 5758 5753 5743 5735 5728 5721 5716 5711 5705 5699 5690 5682 5675 5669 5662 5655 5649 5643 5639 5634
5744 5739 5746 5753 5762 5763 5728 5719 5746 5754 5758 5761 5758 5756 5765 5771 5771 5770 5770 5770 5769 5765 5761 5758 5755 5748 5738 5732 5725 5720 5714 5708 5701 5694 5686 5678 5670 5663 5656 5649 5643 5638 5633 5629
5742 5728 5726 5747 5748 5733 5727 5738 5742 5748 5753 5754 5756 5758 5759 5758 5757 5757 5756 5757 5755 5751 5750 5750 5747 5739 5731 5725 5722 5715 5708 5701 5694 5687 5680 5674 5665 5658 5651 5643 5636 5631 5627 5623
5745 5737 5741 5744 5739 5737 5742 5738 5740 5743 5746 5748 5745 5743 5742 5740 5739 5739 5738 5738 5739 5737 5735 5734 5733 5728 5720 5716 5712 5706 5699 5692 5687 5680 5674 5667 5659 5651 5644 5637 5631 5626 5623 5619
5736 5728 5731 5733 5736 5739 5739 5737 5737 5737 5736 5735 5730 5728 5725 5723 5722 5721 5721 5720 5720 5718 5715 5714 5714 5712 5709 5707 5703 5696 5689 5682 5676 5670 5664 5659 5652 5646 5639 5633 5627 5623 5618 5613
5732 5725 5718 5717 5724 5729 5731 5730 5728 5726 5724 5720 5716 5712 5710 5707 5705 5704 5704 5703 5702 5699 5697 5696 5697 5695 5694 5692 5689 5683 5677 5672 5666 5661 5656 5651 5646 5641 5636 5632 5626 5618 5613 5607
5727 5728 5721 5710 5721 5724 5720 5716 5713 5709 5706 5705 5701 5697 5695 5692 5690 5689 5687 5686 5684 5683 5682 5681 5681 5680 5679 5677 5674 5668 5663 5659 5656 5652 5649 5646 5641 5638 5635 5628 5623 5616 5608 5601
5735 5735 5726 5720 5719 5716 5711 5707 5703 5698 5693 5689 5687 5684 5681 5677 5676 5675 5673 5671 5669 5667 5666 5666 5665 5663 5662 5661 5657 5653 5648 5646 5643 5641 5639 5637 5633 5629 5625 5622 5615 5609 5602 5594
5724 5720 5710 5707 5703 5703 5699 5695 5690 5684 5680 5676 5672 5670 5667 5664 5662 5660 5658 5657 5655 5653 5652 5650 5648 5646 5645 5643 5640 5636 5634 5633 5631 5630 5628 5626 5624 5621 5617 5613 5608 5603 5596 5588
5709 5705 5696 5692 5689 5685 5682 5678 5672 5666 5663 5660 5659 5655 5653 5650 5647 5646 5645 5643 5641 5638 5636 5633 5630 5628 5627 5625 5622 5619 5619 5619 5619 5618 5617 5616 5614 5611 5608 5604 5600 5595 5592 5587
5692 5688 5682 5675 5669 5666 5662 5658 5653 5650 5649 5646 5644 5642 5640 5638 5636 5633 5631 5628 5624 5620 5618 5616 5613 5611 5609 5606 5604 5605 5605 5605 5604 5604 5604 5603 5602 5599 5597 5593 5590 5586 5583 5580
5673 5666 5661 5656 5651 5649 5646 5644 5641 5639 5636 5634 5631 5630 5628 5624 5621 5618 5615 5612 5609 5606 5603 5600 5597 5594 5592 5589 5588 5588 5588 5589 5587 5587 5588 5589 5587 5586 5584 5582 5579 5576 5575 5573
5658 5651 5646 5641 5637 5634 5632 5631 5629 5626 5624 5622 5620 5616 5612 5608 5604 5601 5599 5597 5593 5591 5587 5584 5580 5575 5573 5572 5569 5567 5567 5566 5566 5566 5566 5567 5568 5569 5569 5569 5567 5566 5565 5563
5642 5637 5633 5630 5627 5624 5621 5619 5617 5615 5612 5609 5605 5601 5598 5594 5591 5588 5585 5581 5577 5573 5571 5567 5561 5558 5556 5553 5547 5546 5546 5546 5546 5546 5545 5546 5549 5552 5553 5554 5554 5555 5554 5553
5628 5625 5623 5620 5618 5614 5610 5608 5605 5602 5599 5596 5592 5588 5584 5581 5577 5574 5570 5565 5562 5558 5554 5549 5544 5541 5537 5532 5526 5527 5527 5527 5527 5526 5526 5528 5530 5534 5537 5539 5540 5542 5543 5544
5616 5614 5611 5609 5605 5602 5599 5595 5592 5588 5586 5583 5579 5574 5571 5567 5564 5559 5555 5551 5548 5542 5537 5532 5528 5522 5517 5509 5509 5511 5510 5508 5507 5506 5507 5510 5514 5517 5520 5524 5527 5530 5532 5534
5602 5599 5597 5594 5591 5588 5586 5583 5580 5576 5573 5570 5566 5562 5557 5553 5550 5547 5543 5537 5533 5525 5521 5518 5511 5500 5494 5493 5496 5494 5492 5490 5489 5488 5489 5492 5497 5502 5507 5511 5516 5519 5522 5524
5588 5585 5582 5580 5577 5575 5573 5571 5568 5565 5561 5557 5553 5549 5545 5542 5538 5534 5530 5526 5521 5511 5507 5500 5490 5484 5479 5483 5481 5476 5473 5471 5470 5471 5473 5476 5482 5488 5493 5499 5503 5507 5511 5514
5574 5571 5569 5568 5566 5563 5560 5559 5558 5554 5551 5547 5544 5540 5536 5533 5530 5525 5520 5512 5505 5499 5494 5483 5476 5472 5470 5469 5464 5460 5457 5455 5455 5456 5460 5464 5470 5476 5481 5487 5492 5497 5500 5504
5562 5560 5558 5556 5553 5553 5551 5549 5546 5544 5541 5538 5534 5531 5527 5522 5517 5513 5507 5501 5493 5488 5483 5473 5466 5461 5458 5453 5449 5445 5443 5441 5441 5443 5448 5452 5458 5464 5470 5476 5481 5485 5489 5494
5552 5550 5549 5546 5543 5540 5539 5538 5535 5532 5528 5525 5522 5519 5515 5511 5507 5503 5497 5489 5482 5475 5469 5463 5457 5451 5446 5441 5437 5434 5432 5432 5433 5435 5438 5443 5449 5454 5460 5466 5471 5476 5480 5484
5543 5541 5538 5536 5535 5532 5529 5525 5522 5519 5516 5513 5510 5507 5504 5501 5497 5492 5485 5478 5471 5464 5457 5452 5446 5440 5435 5431 5427 5425 5424 5424 5425 5428 5432 5436 5441 5446 5452 5457 5463 5468 5473 5478